Location: Calvera
(42.3882°N, 0.6137°E)
Time: 13:58:07
(UTC+00:00)

ATLAS CENTAUR R/B - Pass Details

Date: 28 October 2020
Orbit: 478 x 667 km, 64.7° (Epoch: 22 November)

Event Time Altitude Azimuth Distance (km) Brightness Sun altitude
Rises 04:38:39 0° 168° (SSE) 2,675 5.0 -20.4°
Reaches altitude 10° 04:41:51 10° 140° (SE) 1,749 4.4 -19.8°
Maximum altitude 04:43:43 13° 111° (ESE) 1,537 4.6 -19.5°
Drops below altitude 10° 04:45:34 10° 82° (E) 1,713 5.0 -19.1°
Sets 04:48:38 0° 55° (NE) 2,574 5.6 -18.6°
